Location: Axtheid
(49.6213°N, 11.8205°E)
Time: 02:09:20
(UTC+00:00)

N. Korean satellite - Visible Passes

Search period start: 20 January 2022 00:00
Search period end: 30 January 2022 00:00
Orbit: 446 x 491 km, 97.3° (Epoch: 19 January)

Date Brightness Start Highest point End Pass type
(mag) Time Alt. Az. Time Alt. Az. Time Alt. Az.
20 Jan 8.5 04:01:42 10° NNE 04:04:11 29° ENE 04:04:11 29° ENE visible
20 Jan 7.8 05:35:10 10° NNW 05:38:01 22° WNW 05:38:14 22° WNW visible
21 Jan 9.5 03:33:18 10° NE 03:35:05 16° ENE 03:35:05 16° ENE visible
21 Jan 6.9 05:05:36 10° N 05:09:03 43° WNW 05:09:08 43° WNW visible
22 Jan 6.5 04:36:18 10° NNE 04:39:57 86° ESE 04:40:02 85° SSE visible
22 Jan 8.6 06:11:51 10° NW 06:12:30 10° WNW 06:13:09 10° WNW visible
22 Jan 10.0 16:49:39 10° WSW 16:50:59 12° W 16:52:19 10° WNW visible
23 Jan 7.9 04:07:16 10° NNE 04:10:43 38° E 04:10:54 38° ESE visible
23 Jan 7.9 05:40:58 10° NNW 05:43:37 19° WNW 05:44:58 16° W visible
24 Jan 9.3 03:38:40 10° NE 03:41:20 19° E 03:41:47 19° ESE visible
24 Jan 7.1 05:11:14 10° N 05:14:37 37° WNW 05:15:51 28° WSW visible
25 Jan 6.4 04:41:49 10° N 04:45:28 82° WNW 04:46:42 40° SSW visible
25 Jan 10.3 16:55:57 10° W 16:56:30 10° W 16:57:03 10° WNW visible
26 Jan 7.6 04:12:40 10° NNE 04:16:11 45° E 04:17:33 30° SSE visible
26 Jan 8.1 05:46:34 10° NNW 05:49:00 17° WNW 05:51:27 10° WSW visible
27 Jan 9.1 03:43:53 10° NE 03:46:45 22° E 03:48:25 16° SE visible
27 Jan 7.2 05:16:39 10° N 05:19:58 33° WNW 05:22:28 15° SW visible
28 Jan 10.0 03:16:19 10° ENE 03:17:11 11° E 03:18:02 10° E visible
28 Jan 6.4 04:47:08 10° N 04:50:46 70° WNW 04:53:20 18° SSW visible
29 Jan 7.4 04:17:51 10° NNE 04:21:26 52° E 04:24:12 16° S visible
29 Jan 8.2 05:51:59 10° NNW 05:54:11 15° WNW 05:56:23 10° W visible
